Location: Allens Landing
(37.8284°N, 89.7284°W)
Time: 06:32:47
(UTC+00:00)

Vanguard 2 Rocket - Pass Details

Date: 14 November 2024
Orbit: 554 x 3296 km, 32.9° (Epoch: 04 December)

Event Time Altitude Azimuth Distance (km) Brightness Sun altitude
Rises 10:15:02 0° 195° (SSW) 4,780 10.5 -28.4°
Reaches altitude 10° 10:18:39 10° 181° (S) 4,196 10.3 -27.7°
Maximum altitude 10:27:40 24° 133° (SE) 3,996 10.6 -25.9°
Drops below altitude 10° 10:39:59 10° 88° (E) 5,904 12.1 -23.5°
Sets 10:46:23 0° 77° (ENE) 7,171 12.7 -22.2°
